| time (UTC) | temp F | wind direction | speed knots | gust knots | rain 1hr in | rain 24hr in | rain mn in | humidity % | barometer mb |
| 20260506165004 | 84 | 201 | 0.9 | 8.7 | 0.00 | 0.00 | 0.00 | 47 | 1016.6 |
| 20260506164504 | 84 | 141 | 2.6 | 7.0 | 0.00 | 0.00 | 0.00 | 48 | 1016.7 |
| 20260506164004 | 83 | 267 | 0.9 | 6.1 | 0.00 | 0.00 | 0.00 | 51 | 1016.8 |
| 20260506163505 | 83 | 248 | 1.7 | 4.3 | 0.00 | 0.00 | 0.00 | 51 | 1016.9 |
| 20260506163004 | 82 | 246 | 1.7 | 7.0 | 0.00 | 0.00 | 0.00 | 51 | 1017.0 |
| 20260506162503 | 82 | 177 | 1.7 | 7.0 | 0.00 | 0.00 | 0.00 | 52 | 1017.0 |
| 20260506162004 | 82 | 194 | 0.9 | 4.3 | 0.00 | 0.00 | 0.00 | 54 | 1017.0 |
| 20260506161504 | 81 | 318 | 1.7 | 7.0 | 0.00 | 0.00 | 0.00 | 55 | 1017.1 |
| 20260506161004 | 80 | 254 | 1.7 | 7.8 | 0.00 | 0.00 | 0.00 | 56 | 1017.1 |
| 20260506160504 | 79 | 37 | 0.9 | 4.3 | 0.00 | 0.00 | 0.00 | 58 | 1017.1 |
| 20260506160004 | 79 | 146 | 0.9 | 2.6 | 0.00 | 0.00 | 0.00 | 59 | 1017.2 |
| 20260506155504 | 79 | 117 | 0.9 | 4.3 | 0.00 | 0.00 | 0.00 | 59 | 1017.2 |
| 20260506155004 | 79 | 258 | 1.7 | 5.2 | 0.00 | 0.00 | 0.00 | 57 | 1017.3 |
| 20260506154504 | 80 | 263 | 0.9 | 5.2 | 0.00 | 0.00 | 0.00 | 57 | 1017.3 |
| 20260506154004 | 80 | 227 | 1.7 | 4.3 | 0.00 | 0.00 | 0.00 | 56 | 1017.4 |
| 20260506153504 | 80 | 279 | 1.7 | 5.2 | 0.00 | 0.00 | 0.00 | 55 | 1017.4 |
| 20260506153004 | 80 | 273 | 1.7 | 8.7 | 0.00 | 0.00 | 0.00 | 55 | 1017.4 |
| 20260506152504 | 80 | 257 | 1.7 | 6.1 | 0.00 | 0.00 | 0.00 | 57 | 1017.2 |
| 20260506152004 | 80 | 20 | 0.9 | 2.6 | 0.00 | 0.00 | 0.00 | 60 | 1017.2 |
| 20260506151504 | 78 | 257 | 0.9 | 5.2 | 0.00 | 0.00 | 0.00 | 60 | 1017.4 |
| 20260506151004 | 78 | 289 | 1.7 | 5.2 | 0.00 | 0.00 | 0.00 | 62 | 1017.3 |
| 20260506150505 | 78 | 347 | 1.7 | 7.0 | 0.00 | 0.00 | 0.00 | 63 | 1017.2 |
| 20260506150004 | 77 | 260 | 1.7 | 2.6 | 0.00 | 0.00 | 0.00 | 65 | 1017.1 |
| 20260506145504 | 77 | 229 | 0.9 | 1.7 | 0.00 | 0.00 | 0.00 | 66 | 1017.1 |
| 20260506145005 | 76 | 191 | 0.9 | 1.7 | 0.00 | 0.00 | 0.00 | 68 | 1017.1 |
| 20260506144504 | 75 | 166 | 0.0 | 7.0 | 0.00 | 0.00 | 0.00 | 71 | 1017.1 |
| 20260506144004 | 74 | 325 | 0.0 | 0.9 | 0.00 | 0.00 | 0.00 | 72 | 1017.0 |
| 20260506143504 | 74 | 255 | 0.0 | 1.7 | 0.00 | 0.00 | 0.00 | 74 | 1017.1 |
| 20260506143004 | 73 | 161 | 0.0 | 2.6 | 0.00 | 0.00 | 0.00 | 75 | 1016.9 |
| 20260506142503 | 72 | 232 | 0.9 | 4.3 | 0.00 | 0.00 | 0.00 | 78 | 1016.7 |
| 20260506142004 | 71 | 146 | 0.0 | 1.7 | 0.00 | 0.00 | 0.00 | 80 | 1016.7 |
| 20260506141504 | 71 | 157 | 0.0 | 1.7 | 0.00 | 0.00 | 0.00 | 80 | 1016.9 |
| 20260506141004 | 71 | 94 | 0.0 | 1.7 | 0.00 | 0.00 | 0.00 | 80 | 1016.7 |
| 20260506140504 | 71 | 183 | 1.7 | 5.2 | 0.00 | 0.00 | 0.00 | 80 | 1016.7 |
| 20260506140004 | 70 | 142 | 0.9 | 1.7 | 0.00 | 0.00 | 0.00 | 81 | 1016.7 |
| 20260506135504 | 70 | 190 | 0.9 | 1.7 | 0.00 | 0.00 | 0.00 | 81 | 1016.8 |
| 20260506135004 | 69 | 137 | 0.0 | 0.9 | 0.00 | 0.00 | 0.00 | 82 | 1016.9 |
| 20260506134504 | 69 | 135 | 0.0 | 1.7 | 0.00 | 0.00 | 0.00 | 83 | 1016.7 |
| 20260506134004 | 68 | 135 | 0.0 | 0.9 | 0.00 | 0.00 | 0.00 | 83 | 1016.8 |
| 20260506133504 | 68 | 140 | 0.0 | 1.7 | 0.00 | 0.00 | 0.00 | 83 | 1016.6 |
| 20260506133004 | 68 | 149 | 0.0 | 1.7 | 0.00 | 0.00 | 0.00 | 84 | 1016.7 |
| 20260506132504 | 67 | 135 | 0.0 | 0.9 | 0.00 | 0.00 | 0.00 | 84 | 1016.6 |
| 20260506132005 | 67 | 130 | 0.9 | 2.6 | 0.00 | 0.00 | 0.00 | 84 | 1016.7 |
| 20260506131504 | 67 | 131 | 0.9 | 1.7 | 0.00 | 0.00 | 0.00 | 85 | 1016.5 |
| 20260506131005 | 66 | 148 | 0.0 | 0.0 | 0.00 | 0.00 | 0.00 | 85 | 1016.4 |
| 20260506130504 | 66 | 148 | 0.0 | 0.0 | 0.00 | 0.00 | 0.00 | 86 | 1016.4 |
| 20260506130004 | 66 | 148 | 0.0 | 0.0 | 0.00 | 0.00 | 0.00 | 86 | 1016.5 |
| 20260506125503 | 65 | 148 | 0.0 | 1.7 | 0.00 | 0.00 | 0.00 | 86 | 1016.5 |
| 20260506125004 | 65 | 153 | 0.9 | 1.7 | 0.00 | 0.00 | 0.00 | 86 | 1016.5 |
| 20260506124504 | 65 | 148 | 0.0 | 0.9 | 0.00 | 0.00 | 0.00 | 86 | 1016.5 |
| 20260506124005 | 65 | 163 | 0.0 | 0.9 | 0.00 | 0.00 | 0.00 | 87 | 1016.3 |
| 20260506123504 | 64 | 141 | 0.0 | 0.0 | 0.00 | 0.00 | 0.00 | 88 | 1016.3 |
| 20260506123005 | 64 | 141 | 0.0 | 0.0 | 0.00 | 0.00 | 0.00 | 88 | 1016.4 |
| 20260506122504 | 64 | 210 | 0.9 | 1.7 | 0.00 | 0.00 | 0.00 | 88 | 1016.3 |
| 20260506122005 | 63 | 222 | 0.0 | 0.0 | 0.00 | 0.00 | 0.00 | 89 | 1016.2 |
| 20260506121504 | 63 | 222 | 0.0 | 0.0 | 0.00 | 0.00 | 0.00 | 90 | 1016.0 |
| 20260506121004 | 63 | 222 | 0.0 | 0.0 | 0.00 | 0.00 | 0.00 | 90 | 1016.0 |
| 20260506120504 | 62 | 222 | 0.0 | 0.0 | 0.00 | 0.00 | 0.00 | 91 | 1015.9 |
| 20260506120004 | 62 | 222 | 0.0 | 0.0 | 0.00 | 0.00 | 0.00 | 91 | 1015.8 |
| 20260506115504 | 62 | 222 | 0.0 | 0.0 | 0.00 | 0.00 | 0.00 | 91 | 1015.7 |
| 20260506115005 | 62 | 222 | 0.0 | 1.7 | 0.00 | 0.00 | 0.00 | 92 | 1015.7 |
| 20260506114504 | 61 | 146 | 0.0 | 0.0 | 0.00 | 0.00 | 0.00 | 92 | 1015.6 |
| 20260506114005 | 61 | 146 | 0.0 | 1.7 | 0.00 | 0.00 | 0.00 | 92 | 1015.5 |
| 20260506113505 | 61 | 119 | 0.0 | 0.0 | 0.00 | 0.00 | 0.00 | 92 | 1015.4 |
| 20260506113004 | 61 | 119 | 0.0 | 0.0 | 0.00 | 0.00 | 0.00 | 92 | 1015.5 |
| 20260506112504 | 61 | 119 | 0.0 | 0.0 | 0.00 | 0.00 | 0.00 | 92 | 1015.5 |
| 20260506112004 | 61 | 119 | 0.0 | 0.0 | 0.00 | 0.00 | 0.00 | 92 | 1015.5 |
| 20260506111504 | 61 | 119 | 0.0 | 0.0 | 0.00 | 0.00 | 0.00 | 92 | 1015.4 |
| 20260506111005 | 60 | 119 | 0.0 | 0.0 | 0.00 | 0.00 | 0.00 | 92 | 1015.3 |
| 20260506110504 | 60 | 119 | 0.0 | 0.0 | 0.00 | 0.00 | 0.00 | 92 | 1015.1 |
| 20260506110004 | 60 | 119 | 0.0 | 0.0 | 0.00 | 0.00 | 0.00 | 92 | 1015.0 |
| 20260506105504 | 60 | 119 | 0.0 | 0.0 | 0.00 | 0.00 | 0.00 | 92 | 1014.8 |
| 20260506105005 | 60 | 119 | 0.0 | 0.0 | 0.00 | 0.00 | 0.00 | 92 | 1014.7 |
| 20260506104504 | 60 | 119 | 0.0 | 0.0 | 0.00 | 0.00 | 0.00 | 91 | 1014.5 |
| 20260506104004 | 60 | 119 | 0.0 | 0.0 | 0.00 | 0.00 | 0.00 | 91 | 1014.4 |
| 20260506103504 | 60 | 119 | 0.0 | 0.0 | 0.00 | 0.00 | 0.00 | 91 | 1014.4 |
| 20260506103005 | 60 | 119 | 0.0 | 0.0 | 0.00 | 0.00 | 0.00 | 91 | 1014.5 |
| 20260506102504 | 60 | 119 | 0.0 | 0.0 | 0.00 | 0.00 | 0.00 | 91 | 1014.5 |
| 20260506102005 | 60 | 119 | 0.0 | 0.0 | 0.00 | 0.00 | 0.00 | 91 | 1014.5 |
| 20260506101504 | 60 | 119 | 0.0 | 0.0 | 0.00 | 0.00 | 0.00 | 91 | 1014.4 |
| 20260506101005 | 60 | 119 | 0.0 | 0.0 | 0.00 | 0.00 | 0.00 | 91 | 1014.5 |
| 20260506100504 | 60 | 119 | 0.0 | 0.0 | 0.00 | 0.00 | 0.00 | 92 | 1014.5 |
| 20260506100004 | 60 | 119 | 0.0 | 0.0 | 0.00 | 0.00 | 0.00 | 91 | 1014.5 |
| 20260506095505 | 60 | 119 | 0.0 | 0.0 | 0.00 | 0.00 | 0.00 | 92 | 1014.5 |
| 20260506095004 | 60 | 119 | 0.0 | 0.0 | 0.00 | 0.00 | 0.00 | 91 | 1014.6 |
| 20260506094504 | 59 | 119 | 0.0 | 0.0 | 0.00 | 0.00 | 0.00 | 91 | 1014.6 |
| 20260506094005 | 60 | 119 | 0.0 | 0.0 | 0.00 | 0.00 | 0.00 | 90 | 1014.6 |
| 20260506093504 | 60 | 119 | 0.0 | 0.0 | 0.00 | 0.00 | 0.00 | 90 | 1014.6 |
| 20260506093005 | 60 | 119 | 0.0 | 0.0 | 0.00 | 0.00 | 0.00 | 90 | 1014.6 |
| 20260506092504 | 60 | 119 | 0.0 | 0.0 | 0.00 | 0.00 | 0.00 | 90 | 1014.6 |
| 20260506092004 | 60 | 119 | 0.0 | 0.0 | 0.00 | 0.00 | 0.00 | 90 | 1014.4 |
| 20260506091504 | 60 | 119 | 0.0 | 0.0 | 0.00 | 0.00 | 0.00 | 89 | 1014.5 |
| 20260506091005 | 60 | 119 | 0.0 | 0.0 | 0.00 | 0.00 | 0.00 | 88 | 1014.5 |
| 20260506090505 | 60 | 119 | 0.0 | 0.0 | 0.00 | 0.00 | 0.00 | 88 | 1014.6 |
| 20260506090004 | 61 | 119 | 0.0 | 0.0 | 0.00 | 0.00 | 0.00 | 88 | 1014.7 |
| 20260506085504 | 61 | 119 | 0.0 | 0.0 | 0.00 | 0.00 | 0.00 | 88 | 1014.9 |
| 20260506085004 | 61 | 119 | 0.0 | 0.0 | 0.00 | 0.00 | 0.00 | 88 | 1014.9 |
| 20260506084504 | 61 | 119 | 0.0 | 0.0 | 0.00 | 0.00 | 0.00 | 87 | 1014.9 |
| 20260506084005 | 61 | 119 | 0.0 | 0.0 | 0.00 | 0.00 | 0.00 | 87 | 1014.9 |
| 20260506083504 | 61 | 119 | 0.0 | 0.0 | 0.00 | 0.00 | 0.00 | 87 | 1015.0 |
| 20260506083004 | 61 | 119 | 0.0 | 0.0 | 0.00 | 0.00 | 0.00 | 88 | 1015.0 |
| 20260506082504 | 61 | 119 | 0.0 | 0.0 | 0.00 | 0.00 | 0.00 | 88 | 1015.1 |
| 20260506082004 | 61 | 119 | 0.0 | 0.0 | 0.00 | 0.00 | 0.00 | 87 | 1015.1 |
| 20260506081504 | 61 | 119 | 0.0 | 0.0 | 0.00 | 0.00 | 0.00 | 87 | 1015.1 |
| 20260506081005 | 62 | 119 | 0.0 | 0.0 | 0.00 | 0.00 | 0.00 | 86 | 1015.1 |
| 20260506080505 | 62 | 119 | 0.0 | 0.0 | 0.00 | 0.00 | 0.00 | 86 | 1015.1 |
| 20260506073504 | 63 | 119 | 0.0 | 0.0 | 0.00 | 0.00 | 0.00 | 84 | 1014.8 |
| 20260506073004 | 63 | 119 | 0.0 | 0.0 | 0.00 | 0.00 | 0.00 | 83 | 1014.7 |
| 20260506072504 | 63 | 119 | 0.0 | 0.0 | 0.00 | 0.00 | 0.00 | 83 | 1014.6 |
| 20260506072004 | 64 | 119 | 0.0 | 0.0 | 0.00 | 0.00 | 0.00 | 83 | 1014.7 |
| 20260506071504 | 64 | 119 | 0.0 | 0.0 | 0.00 | 0.00 | 0.00 | 82 | 1014.8 |
| 20260506071004 | 64 | 119 | 0.0 | 0.0 | 0.00 | 0.00 | 0.00 | 81 | 1014.8 |
| 20260506070504 | 65 | 119 | 0.0 | 0.0 | 0.00 | 0.00 | 0.00 | 81 | 1014.8 |
| 20260506062504 | 65 | 57 | 0.0 | 0.0 | 0.00 | 0.00 | 0.00 | 83 | 1014.6 |
| 20260506062004 | 64 | 57 | 0.0 | 0.0 | 0.00 | 0.00 | 0.00 | 82 | 1014.5 |
| 20260506061504 | 64 | 57 | 0.0 | 0.9 | 0.00 | 0.00 | 0.00 | 81 | 1014.4 |
| 20260506061005 | 64 | 82 | 0.0 | 0.0 | 0.00 | 0.00 | 0.00 | 81 | 1014.5 |
| 20260506060504 | 64 | 82 | 0.0 | 0.9 | 0.00 | 0.00 | 0.00 | 82 | 1014.6 |
| 20260506051005 | 62 | 111 | 0.0 | 0.0 | 0.00 | 0.00 | 0.00 | 80 | 1015.0 |
| 20260506050504 | 62 | 111 | 0.0 | 0.0 | 0.00 | 0.00 | 0.00 | 80 | 1015.0 |
| 20260506045005 | 61 | 111 | 0.0 | 0.0 | 0.00 | 0.00 | 0.00 | 82 | 1015.1 |
| 20260506044504 | 61 | 111 | 0.0 | 0.0 | 0.00 | 0.00 | 0.00 | 82 | 1014.9 |
| 20260506044004 | 61 | 111 | 0.0 | 0.0 | 0.00 | 0.00 | 0.00 | 83 | 1014.9 |
| 20260506043504 | 61 | 111 | 0.0 | 0.0 | 0.00 | 0.00 | 0.00 | 84 | 1015.0 |
| 20260506043004 | 61 | 111 | 0.0 | 0.0 | 0.00 | 0.00 | 0.00 | 83 | 1015.1 |
| 20260506042504 | 61 | 111 | 0.0 | 0.0 | 0.00 | 0.00 | 0.00 | 83 | 1015.0 |
| 20260506042005 | 61 | 111 | 0.0 | 0.0 | 0.00 | 0.00 | 0.00 | 82 | 1015.2 |
| 20260506041504 | 61 | 111 | 0.0 | 0.0 | 0.00 | 0.00 | 0.00 | 82 | 1015.3 |
| 20260506041004 | 61 | 111 | 0.0 | 0.0 | 0.00 | 0.00 | 0.00 | 81 | 1015.3 |
| 20260506040505 | 61 | 111 | 0.0 | 0.0 | 0.00 | 0.00 | 0.00 | 82 | 1015.2 |
| 20260506040004 | 61 | 111 | 0.0 | 0.0 | 0.00 | 0.00 | 0.00 | 81 | 1015.0 |
| 20260506035504 | 61 | 111 | 0.0 | 0.0 | 0.00 | 0.00 | 0.00 | 80 | 1015.1 |
| 20260506035005 | 61 | 111 | 0.0 | 0.0 | 0.00 | 0.00 | 0.00 | 80 | 1015.0 |
| 20260506034503 | 62 | 111 | 0.0 | 0.0 | 0.00 | 0.00 | 0.00 | 79 | 1015.0 |
| 20260506034004 | 62 | 111 | 0.0 | 0.0 | 0.00 | 0.00 | 0.00 | 78 | 1014.9 |
| 20260506033505 | 62 | 111 | 0.0 | 0.0 | 0.00 | 0.00 | 0.00 | 77 | 1014.9 |
| 20260506033005 | 62 | 111 | 0.0 | 0.0 | 0.00 | 0.00 | 0.00 | 77 | 1014.9 |
| 20260506032504 | 62 | 111 | 0.0 | 0.0 | 0.00 | 0.00 | 0.00 | 76 | 1015.0 |
| 20260506032005 | 62 | 111 | 0.0 | 0.0 | 0.00 | 0.00 | 0.00 | 75 | 1015.0 |
| 20260506031503 | 63 | 111 | 0.0 | 0.0 | 0.00 | 0.00 | 0.00 | 74 | 1014.9 |
| 20260506031004 | 63 | 111 | 0.0 | 0.0 | 0.00 | 0.00 | 0.00 | 74 | 1015.0 |
| 20260506030504 | 63 | 111 | 0.0 | 0.0 | 0.00 | 0.00 | 0.00 | 73 | 1015.0 |
| 20260506030004 | 64 | 111 | 0.0 | 0.0 | 0.00 | 0.00 | 0.00 | 72 | 1015.1 |
| 20260506025504 | 64 | 111 | 0.0 | 0.0 | 0.00 | 0.00 | 0.00 | 72 | 1015.2 |
| 20260506025004 | 64 | 111 | 0.0 | 0.0 | 0.00 | 0.00 | 0.00 | 71 | 1015.4 |
| 20260506024503 | 64 | 111 | 0.0 | 0.0 | 0.00 | 0.00 | 0.00 | 70 | 1015.4 |
| 20260506024005 | 64 | 111 | 0.0 | 0.0 | 0.00 | 0.00 | 0.00 | 69 | 1015.2 |
| 20260506023504 | 65 | 111 | 0.0 | 0.0 | 0.00 | 0.00 | 0.00 | 69 | 1015.2 |
| 20260506023004 | 65 | 111 | 0.0 | 0.0 | 0.00 | 0.00 | 0.00 | 68 | 1015.0 |
| 20260506022504 | 65 | 111 | 0.0 | 0.0 | 0.00 | 0.00 | 0.00 | 67 | 1015.0 |
| 20260506022005 | 65 | 111 | 0.0 | 0.0 | 0.00 | 0.00 | 0.00 | 66 | 1015.1 |
| 20260506021503 | 66 | 111 | 0.0 | 0.0 | 0.00 | 0.00 | 0.00 | 66 | 1015.1 |
| 20260506021004 | 66 | 111 | 0.0 | 0.0 | 0.00 | 0.00 | 0.00 | 65 | 1014.8 |
| 20260506020504 | 66 | 111 | 0.0 | 0.0 | 0.00 | 0.00 | 0.00 | 65 | 1014.8 |
| 20260506020003 | 67 | 111 | 0.0 | 0.0 | 0.00 | 0.00 | 0.00 | 64 | 1014.8 |
| 20260506015503 | 67 | 111 | 0.0 | 0.0 | 0.00 | 0.00 | 0.00 | 64 | 1014.9 |
| 20260506015004 | 67 | 111 | 0.0 | 0.0 | 0.00 | 0.00 | 0.00 | 62 | 1014.9 |
| 20260506014504 | 68 | 111 | 0.0 | 0.0 | 0.00 | 0.00 | 0.00 | 62 | 1014.8 |
| 20260506014004 | 68 | 111 | 0.0 | 0.0 | 0.00 | 0.00 | 0.00 | 60 | 1014.8 |
| 20260506013504 | 68 | 111 | 0.0 | 0.0 | 0.00 | 0.00 | 0.00 | 59 | 1014.8 |
| 20260506013004 | 69 | 111 | 0.0 | 0.0 | 0.00 | 0.00 | 0.00 | 57 | 1014.8 |
| 20260506012503 | 69 | 111 | 0.0 | 0.0 | 0.00 | 0.00 | 0.00 | 56 | 1014.8 |
| 20260506012005 | 70 | 111 | 0.0 | 0.0 | 0.00 | 0.00 | 0.00 | 55 | 1014.8 |
| 20260506011504 | 70 | 111 | 0.0 | 0.0 | 0.00 | 0.00 | 0.00 | 55 | 1014.8 |
| 20260506011004 | 70 | 111 | 0.0 | 0.0 | 0.00 | 0.00 | 0.00 | 55 | 1015.0 |
| 20260506010504 | 71 | 111 | 0.0 | 0.0 | 0.00 | 0.00 | 0.00 | 54 | 1015.0 |
| 20260506010004 | 71 | 111 | 0.0 | 0.0 | 0.00 | 0.00 | 0.00 | 52 | 1014.9 |
| 20260506005504 | 71 | 111 | 0.0 | 0.0 | 0.00 | 0.00 | 0.00 | 51 | 1015.0 |
| 20260506005004 | 72 | 111 | 0.0 | 0.0 | 0.00 | 0.00 | 0.00 | 50 | 1014.9 |
| 20260506004504 | 72 | 111 | 0.0 | 0.0 | 0.00 | 0.00 | 0.00 | 49 | 1014.8 |
| 20260506004005 | 73 | 111 | 0.0 | 0.0 | 0.00 | 0.00 | 0.00 | 47 | 1014.6 |
| 20260506003504 | 74 | 111 | 0.0 | 0.0 | 0.00 | 0.00 | 0.00 | 46 | 1014.5 |
| 20260506003004 | 74 | 111 | 0.0 | 0.0 | 0.00 | 0.00 | 0.00 | 45 | 1014.5 |
| 20260506002504 | 75 | 111 | 0.0 | 0.0 | 0.00 | 0.00 | 0.00 | 44 | 1014.5 |
| 20260506002005 | 75 | 111 | 0.0 | 0.0 | 0.00 | 0.00 | 0.00 | 44 | 1014.5 |
| 20260506001504 | 76 | 111 | 0.0 | 0.0 | 0.00 | 0.00 | 0.00 | 43 | 1014.4 |
| 20260506001004 | 76 | 111 | 0.0 | 0.0 | 0.00 | 0.00 | 0.00 | 42 | 1014.4 |
| 20260506000504 | 77 | 111 | 0.0 | 0.0 | 0.00 | 0.00 | 0.00 | 41 | 1014.4 |
| 20260506000004 | 77 | 111 | 0.0 | 0.9 | 0.00 | 0.00 | 0.00 | 40 | 1014.4 |
| 20260505235503 | 78 | 222 | 0.0 | 0.0 | 0.00 | 0.00 | 0.00 | 39 | 1014.4 |
| 20260505235004 | 78 | 222 | 0.0 | 0.0 | 0.00 | 0.00 | 0.00 | 38 | 1014.3 |
| 20260505234504 | 78 | 222 | 0.0 | 0.0 | 0.00 | 0.00 | 0.00 | 37 | 1014.1 |
| 20260505234004 | 79 | 222 | 0.0 | 0.0 | 0.00 | 0.00 | 0.00 | 36 | 1014.2 |
| 20260505233504 | 79 | 271 | 0.0 | 0.9 | 0.00 | 0.00 | 0.00 | 37 | 1014.2 |
| 20260505233004 | 79 | 193 | 0.9 | 5.2 | 0.00 | 0.00 | 0.00 | 35 | 1014.1 |
| 20260505232503 | 79 | 196 | 0.9 | 4.3 | 0.00 | 0.00 | 0.00 | 35 | 1014.1 |
| 20260505232005 | 80 | 324 | 0.9 | 4.3 | 0.00 | 0.00 | 0.00 | 35 | 1014.1 |
| 20260505231504 | 80 | 259 | 0.0 | 1.7 | 0.00 | 0.00 | 0.00 | 35 | 1013.9 |
| 20260505231004 | 80 | 83 | 2.6 | 8.7 | 0.00 | 0.00 | 0.00 | 34 | 1013.9 |
| 20260505230504 | 80 | 100 | 0.9 | 4.3 | 0.00 | 0.00 | 0.00 | 36 | 1013.8 |
| 20260505230004 | 80 | 259 | 0.9 | 4.3 | 0.00 | 0.00 | 0.00 | 36 | 1013.8 |
| 20260505225504 | 80 | 262 | 0.9 | 2.6 | 0.00 | 0.00 | 0.00 | 37 | 1013.8 |
| 20260505225005 | 81 | 228 | 1.7 | 2.6 | 0.00 | 0.00 | 0.00 | 38 | 1013.7 |
| 20260505224504 | 81 | 112 | 0.9 | 4.3 | 0.00 | 0.00 | 0.00 | 37 | 1013.6 |
| 20260505224004 | 81 | 151 | 0.9 | 2.6 | 0.00 | 0.00 | 0.00 | 36 | 1013.8 |
| 20260505223504 | 81 | 134 | 1.7 | 6.1 | 0.00 | 0.00 | 0.00 | 36 | 1013.8 |
| 20260505223004 | 81 | 172 | 1.7 | 5.2 | 0.00 | 0.00 | 0.00 | 35 | 1013.9 |
| 20260505222504 | 81 | 317 | 0.9 | 2.6 | 0.00 | 0.00 | 0.00 | 36 | 1013.9 |
| 20260505222004 | 81 | 257 | 1.7 | 7.8 | 0.00 | 0.00 | 0.00 | 36 | 1013.8 |
| 20260505221504 | 81 | 216 | 1.7 | 6.1 | 0.00 | 0.00 | 0.00 | 37 | 1013.9 |
| 20260505221005 | 81 | 184 | 1.7 | 10.4 | 0.00 | 0.00 | 0.00 | 37 | 1013.9 |
| 20260505220504 | 81 | 196 | 2.6 | 7.8 | 0.00 | 0.00 | 0.00 | 36 | 1014.0 |
| 20260505220004 | 82 | 170 | 1.7 | 2.6 | 0.00 | 0.00 | 0.00 | 37 | 1014.0 |
| 20260505215504 | 81 | 247 | 0.9 | 4.3 | 0.00 | 0.00 | 0.00 | 38 | 1013.9 |
| 20260505215005 | 81 | 211 | 1.7 | 7.0 | 0.00 | 0.00 | 0.00 | 37 | 1013.8 |
| 20260505214504 | 81 | 99 | 1.7 | 5.2 | 0.00 | 0.00 | 0.00 | 38 | 1014.0 |
| 20260505214004 | 82 | 146 | 2.6 | 8.7 | 0.00 | 0.00 | 0.00 | 38 | 1014.3 |
| 20260505213504 | 82 | 24 | 1.7 | 7.0 | 0.00 | 0.00 | 0.00 | 37 | 1014.3 |
| 20260505213004 | 82 | 133 | 0.9 | 4.3 | 0.00 | 0.00 | 0.00 | 39 | 1014.3 |
| 20260505212503 | 82 | 85 | 1.7 | 7.8 | 0.00 | 0.00 | 0.00 | 38 | 1014.3 |
| 20260505212004 | 83 | 227 | 0.9 | 2.6 | 0.00 | 0.00 | 0.00 | 38 | 1014.2 |
| 20260505211504 | 83 | 166 | 1.7 | 5.2 | 0.00 | 0.00 | 0.00 | 37 | 1014.1 |
| 20260505211005 | 83 | 332 | 0.9 | 2.6 | 0.00 | 0.00 | 0.00 | 39 | 1014.2 |
| 20260505210504 | 83 | 251 | 2.6 | 4.3 | 0.00 | 0.00 | 0.00 | 38 | 1014.1 |
| 20260505210004 | 83 | 93 | 0.9 | 4.3 | 0.00 | 0.00 | 0.00 | 38 | 1014.3 |
| 20260505205503 | 84 | 138 | 2.6 | 6.1 | 0.00 | 0.00 | 0.00 | 38 | 1014.2 |
| 20260505205004 | 83 | 181 | 0.9 | 5.2 | 0.00 | 0.00 | 0.00 | 39 | 1014.2 |
| 20260505204504 | 83 | 141 | 2.6 | 6.1 | 0.00 | 0.00 | 0.00 | 38 | 1014.3 |
| 20260505204005 | 83 | 148 | 1.7 | 5.2 | 0.00 | 0.00 | 0.00 | 38 | 1014.3 |
| 20260505203504 | 83 | 107 | 2.6 | 7.8 | 0.00 | 0.00 | 0.00 | 38 | 1014.4 |
| 20260505203005 | 83 | 132 | 2.6 | 7.0 | 0.00 | 0.00 | 0.00 | 38 | 1014.6 |
| 20260505202504 | 82 | 71 | 0.0 | 7.8 | 0.00 | 0.00 | 0.00 | 40 | 1014.6 |
| 20260505202004 | 83 | 134 | 4.3 | 10.4 | 0.00 | 0.00 | 0.00 | 38 | 1014.6 |
| 20260505201504 | 83 | 129 | 2.6 | 7.0 | 0.00 | 0.00 | 0.00 | 38 | 1014.7 |
| 20260505201005 | 84 | 203 | 1.7 | 4.3 | 0.00 | 0.00 | 0.00 | 39 | 1014.8 |
| 20260505200504 | 84 | 211 | 1.7 | 10.4 | 0.00 | 0.00 | 0.00 | 38 | 1014.7 |
| 20260505200004 | 85 | 265 | 1.7 | 4.3 | 0.00 | 0.00 | 0.00 | 40 | 1014.7 |
| 20260505195504 | 84 | 120 | 2.6 | 5.2 | 0.00 | 0.00 | 0.00 | 38 | 1015.0 |
| 20260505195004 | 84 | 191 | 1.7 | 5.2 | 0.00 | 0.00 | 0.00 | 37 | 1015.1 |
| 20260505194504 | 84 | 106 | 1.7 | 2.6 | 0.00 | 0.00 | 0.00 | 38 | 1015.1 |
| 20260505194005 | 84 | 83 | 0.9 | 6.1 | 0.00 | 0.00 | 0.00 | 39 | 1015.1 |
| 20260505193504 | 84 | 271 | 1.7 | 4.3 | 0.00 | 0.00 | 0.00 | 38 | 1015.2 |
| 20260505193004 | 84 | 166 | 0.9 | 2.6 | 0.00 | 0.00 | 0.00 | 38 | 1015.1 |
| 20260505192504 | 84 | 189 | 1.7 | 6.1 | 0.00 | 0.00 | 0.00 | 37 | 1015.2 |
| 20260505192005 | 84 | 109 | 2.6 | 7.8 | 0.00 | 0.00 | 0.00 | 38 | 1015.2 |
| 20260505191504 | 84 | 144 | 2.6 | 7.0 | 0.00 | 0.00 | 0.00 | 39 | 1015.2 |
| 20260505191005 | 84 | 92 | 1.7 | 5.2 | 0.00 | 0.00 | 0.00 | 40 | 1015.4 |
| 20260505190504 | 84 | 206 | 1.7 | 7.0 | 0.00 | 0.00 | 0.00 | 40 | 1015.4 |
| 20260505190004 | 83 | 34 | 2.6 | 7.0 | 0.00 | 0.00 | 0.00 | 39 | 1015.5 |
| 20260505185504 | 84 | 257 | 2.6 | 5.2 | 0.00 | 0.00 | 0.00 | 38 | 1015.7 |
| 20260505185004 | 83 | 253 | 1.7 | 6.1 | 0.00 | 0.00 | 0.00 | 37 | 1015.9 |
| 20260505184504 | 84 | 253 | 2.6 | 7.0 | 0.00 | 0.00 | 0.00 | 37 | 1016.1 |
| 20260505184004 | 83 | 81 | 1.7 | 6.1 | 0.00 | 0.00 | 0.00 | 37 | 1016.1 |
| 20260505183504 | 84 | 210 | 1.7 | 7.0 | 0.00 | 0.00 | 0.00 | 36 | 1016.4 |
| 20260505183005 | 83 | 167 | 1.7 | 5.2 | 0.00 | 0.00 | 0.00 | 37 | 1016.3 |
| 20260505182504 | 83 | 262 | 0.9 | 2.6 | 0.00 | 0.00 | 0.00 | 38 | 1016.4 |
| 20260505182004 | 82 | 133 | 1.7 | 7.0 | 0.00 | 0.00 | 0.00 | 40 | 1016.4 |
| 20260505181504 | 83 | 264 | 2.6 | 7.0 | 0.00 | 0.00 | 0.00 | 40 | 1016.3 |
| 20260505181005 | 82 | 277 | 1.7 | 7.8 | 0.00 | 0.00 | 0.00 | 39 | 1016.3 |
| 20260505180504 | 82 | 200 | 1.7 | 6.1 | 0.00 | 0.00 | 0.00 | 40 | 1016.5 |
| 20260505180004 | 82 | 225 | 0.9 | 6.1 | 0.00 | 0.00 | 0.00 | 43 | 1016.4 |
| 20260505175504 | 82 | 94 | 1.7 | 5.2 | 0.00 | 0.00 | 0.00 | 40 | 1016.6 |
| 20260505175004 | 82 | 94 | 1.7 | 7.0 | 0.00 | 0.00 | 0.00 | 41 | 1016.6 |
| 20260505174504 | 82 | 149 | 2.6 | 7.0 | 0.00 | 0.00 | 0.00 | 39 | 1016.7 |
| 20260505174004 | 82 | 122 | 1.7 | 5.2 | 0.00 | 0.00 | 0.00 | 38 | 1016.5 |
| 20260505173505 | 82 | 215 | 1.7 | 7.0 | 0.00 | 0.00 | 0.00 | 38 | 1016.6 |
| 20260505173004 | 81 | 162 | 0.9 | 5.2 | 0.00 | 0.00 | 0.00 | 38 | 1016.6 |
| 20260505172504 | 81 | 111 | 3.5 | 7.8 | 0.00 | 0.00 | 0.00 | 39 | 1016.7 |
| 20260505172004 | 82 | 129 | 1.7 | 7.0 | 0.00 | 0.00 | 0.00 | 40 | 1016.7 |
| 20260505171503 | 82 | 175 | 1.7 | 5.2 | 0.00 | 0.00 | 0.00 | 41 | 1016.7 |
| 20260505171004 | 82 | 232 | 1.7 | 8.7 | 0.00 | 0.00 | 0.00 | 39 | 1016.8 |
| 20260505170504 | 82 | 127 | 2.6 | 10.4 | 0.00 | 0.00 | 0.00 | 42 | 1016.8 |
| 20260505170004 | 81 | 20 | 1.7 | 5.2 | 0.00 | 0.00 | 0.00 | 42 | 1017.0 |
| 20260505165504 | 81 | 251 | 2.6 | 5.2 | 0.00 | 0.00 | 0.00 | 42 | 1017.1 |